sat.trackr.live / text

‹ back to catalog

STAR ONE C3

NORAD 38991 · 2012-062A

PAYLOAD ACTIVE UNKNOWN

§ Identity

Operator
Country
BRAZ
Launch date
2012-11-10
Launch site
FRGUI
Launch vehicle
Mass (kg)
RCS (m²)
113.21

Purposes: comms

External: N2YO · Heavens-Above · Gunter

§ Orbital elements

Epoch: 2026-09-20T02:15:35.618400Z

Period
1,436.09 min
Inclination
0.0344°
Eccentricity
0.0002051
Mean motion
1.00272031 rev/d
Perigee alt
35,777.9 km
Apogee alt
35,795.2 km
Semi-major
42,164.7 km
B*
0.0000e+0
RAAN
86.0694°
Arg perigee
83.5144°
Mean anomaly
148.3212°
Rev number
5,071

§ Raw data

STAR ONE C31 38991U 12062A   26263.09416225 -.00000253  00000+0  00000+0 0  99982 38991   0.0344  86.0694 0002051  83.5144 148.3212  1.00272031 50719

JSON: /api/v1/satellites/38991 · /tle

For live sub-satellite position, see the globe view (requires WebGL).

§ Visibility from observer

Set your observer location to see the next 7 days of passes ≥ 10°. The values pass through the URL so the page stays shareable.

No JS? Fill the form by hand. The geolocation button needs JavaScript.